TimeCDT,TemperatureF,Dew PointF,Humidity,Sea Level PressureIn,VisibilityMPH,Wind Direction,Wind SpeedMPH,Gust SpeedMPH,PrecipitationIn,Events,Conditions,WindDirDegrees,DateUTC
12:56 AM,70.0,66.0,87,30.04,10.0,Calm,Calm,-,N/A,,Clear,0,2013-08-29 05:56:00
1:56 AM,69.1,64.9,87,30.03,10.0,Calm,Calm,-,N/A,,Clear,0,2013-08-29 06:56:00
2:56 AM,66.9,64.9,93,30.02,10.0,Calm,Calm,-,N/A,,Clear,0,2013-08-29 07:56:00
3:56 AM,66.9,64.0,90,30.01,10.0,Calm,Calm,-,N/A,,Partly Cloudy,0,2013-08-29 08:56:00
4:56 AM,66.9,64.0,90,30.02,10.0,Calm,Calm,-,N/A,,Clear,0,2013-08-29 09:56:00
5:45 AM,-9999,-9999,N/A,-9999,-9999.0,North,-9999.0,-,N/A,Hail,Hail,0,2013-08-29 10:45:00
5:56 AM,66.9,64.0,90,30.04,10.0,Calm,Calm,-,N/A,,Clear,0,2013-08-29 10:56:00
6:56 AM,68.0,64.0,87,30.06,10.0,Calm,Calm,-,N/A,,Clear,0,2013-08-29 11:56:00
7:56 AM,75.0,66.9,76,30.07,10.0,Calm,Calm,-,N/A,,Clear,0,2013-08-29 12:56:00
8:56 AM,79.0,68.0,69,30.07,10.0,NW,5.8,-,N/A,,Partly Cloudy,320,2013-08-29 13:56:00
9:56 AM,82.9,69.1,63,30.07,10.0,WNW,6.9,-,N/A,,Clear,290,2013-08-29 14:56:00
10:56 AM,86.0,69.1,57,30.06,10.0,WNW,8.1,-,N/A,,Clear,290,2013-08-29 15:56:00
11:56 AM,88.0,70.0,55,30.05,10.0,West,6.9,-,N/A,,Clear,280,2013-08-29 16:56:00
12:56 PM,89.1,69.1,52,30.03,10.0,Variable,3.5,-,N/A,,Clear,0,2013-08-29 17:56:00
1:56 PM,90.0,69.1,50,30.01,10.0,NW,3.5,-,N/A,,Scattered Clouds,320,2013-08-29 18:56:00
2:56 PM,90.0,70.0,52,29.99,10.0,West,3.5,-,N/A,,Scattered Clouds,270,2013-08-29 19:56:00
3:56 PM,90.0,69.1,50,29.98,10.0,West,4.6,-,N/A,,Partly Cloudy,260,2013-08-29 20:56:00
4:56 PM,90.0,70.0,52,29.98,10.0,NNW,5.8,-,N/A,,Scattered Clouds,330,2013-08-29 21:56:00
5:56 PM,87.1,71.1,59,29.97,10.0,Variable,4.6,-,N/A,,Scattered Clouds,0,2013-08-29 22:56:00
6:56 PM,84.0,71.1,65,29.98,10.0,WNW,6.9,-,N/A,,Clear,300,2013-08-29 23:56:00
7:56 PM,81.0,72.0,74,29.98,10.0,West,3.5,-,N/A,,Clear,280,2013-08-30 00:56:00
8:56 PM,80.1,72.0,76,29.99,10.0,WNW,4.6,-,N/A,,Clear,290,2013-08-30 01:56:00
9:56 PM,79.0,72.0,79,29.98,10.0,WNW,3.5,-,N/A,,Clear,290,2013-08-30 02:56:00
10:56 PM,75.9,71.1,85,29.98,9.0,Calm,Calm,-,N/A,,Clear,0,2013-08-30 03:56:00
11:56 PM,73.9,71.1,91,29.98,8.0,Calm,Calm,-,N/A,,Clear,0,2013-08-30 04:56:00